| time (UTC) | temp F | wind direction | speed MPH | gust MPH | rain 1hr in | rain 24hr in | rain mn in | humidity % | barometer mb |
| 20260508054439 | 52 | 53 | 0.0 | 3.0 | 0.00 | 0.00 | 0.00 | 99 | 1013.7 |
| 20260508053936 | 52 | 352 | 0.0 | 1.0 | 0.00 | 0.00 | 0.00 | 99 | 1013.7 |
| 20260508053433 | 52 | 53 | 0.0 | 2.0 | 0.00 | 0.00 | 0.00 | 99 | 1013.6 |
| 20260508052931 | 52 | 53 | 0.0 | 2.0 | 0.00 | 0.00 | 0.00 | 99 | 1013.7 |
| 20260508052428 | 52 | 324 | 0.0 | 1.0 | 0.00 | 0.00 | 0.00 | 99 | 1013.5 |
| 20260508051924 | 52 | 302 | 0.0 | 1.0 | 0.00 | 0.00 | 0.00 | 99 | 1013.4 |
| 20260508051420 | 53 | 38 | 0.0 | 1.0 | 0.00 | 0.00 | 0.00 | 99 | 1013.4 |
| 20260508050916 | 53 | 304 | 0.0 | 1.0 | 0.00 | 0.00 | 0.00 | 99 | 1013.3 |
| 20260508050413 | 53 | 55 | 2.0 | 2.0 | 0.00 | 0.00 | 0.00 | 99 | 1013.6 |
| 20260508045909 | 53 | 320 | 1.0 | 2.0 | 0.00 | 0.00 | 0.00 | 99 | 1013.3 |
| 20260508045407 | 53 | 23 | 0.0 | 1.0 | 0.00 | 0.00 | 0.00 | 99 | 1013.6 |
| 20260508044905 | 53 | 58 | 1.0 | 2.0 | 0.00 | 0.00 | 0.00 | 99 | 1013.5 |
| 20260508044402 | 53 | 338 | 0.0 | 1.0 | 0.00 | 0.00 | 0.00 | 99 | 1013.3 |
| 20260508043857 | 53 | 78 | 1.0 | 2.0 | 0.00 | 0.00 | 0.00 | 99 | 1013.2 |
| 20260508043354 | 53 | 57 | 0.0 | 2.0 | 0.00 | 0.00 | 0.00 | 99 | 1013.1 |
| 20260508042850 | 53 | 16 | 0.0 | 1.0 | 0.00 | 0.00 | 0.00 | 99 | 1013.2 |
| 20260508042348 | 53 | 47 | 2.0 | 3.0 | 0.00 | 0.00 | 0.00 | 99 | 1013.2 |
| 20260508041845 | 53 | 79 | 1.0 | 2.0 | 0.00 | 0.00 | 0.00 | 99 | 1013.4 |
| 20260508041341 | 53 | 31 | 1.0 | 2.0 | 0.00 | 0.00 | 0.00 | 99 | 1013.1 |
| 20260508040838 | 53 | 52 | 1.0 | 2.0 | 0.00 | 0.00 | 0.00 | 99 | 1013.4 |
| 20260508040336 | 53 | 55 | 2.0 | 2.0 | 0.00 | 0.00 | 0.00 | 99 | 1013.5 |
| 20260508035833 | 53 | 30 | 0.0 | 1.0 | 0.00 | 0.79 | 0.79 | 99 | 1013.3 |
| 20260508035330 | 54 | 50 | 0.0 | 1.0 | 0.00 | 0.79 | 0.79 | 99 | 1013.2 |
| 20260508034827 | 54 | 83 | 0.0 | 1.0 | 0.00 | 0.79 | 0.79 | 99 | 1013.3 |
| 20260508034324 | 54 | 81 | 1.0 | 2.0 | 0.00 | 0.79 | 0.79 | 99 | 1013.3 |
| 20260508033821 | 54 | 73 | 0.0 | 1.0 | 0.00 | 0.79 | 0.79 | 99 | 1013.4 |
| 20260508033319 | 53 | 41 | 0.0 | 1.0 | 0.00 | 0.79 | 0.79 | 99 | 1013.0 |
| 20260508032816 | 53 | 44 | 3.0 | 3.0 | 0.00 | 0.79 | 0.79 | 99 | 1013.2 |
| 20260508032314 | 53 | 67 | 2.0 | 2.0 | 0.00 | 0.79 | 0.79 | 99 | 1013.3 |
| 20260508031810 | 53 | 81 | 1.0 | 1.0 | 0.00 | 0.79 | 0.79 | 99 | 1012.9 |
| 20260508031307 | 53 | 81 | 0.0 | 1.0 | 0.00 | 0.79 | 0.79 | 99 | 1013.1 |
| 20260508030803 | 53 | 29 | 0.0 | 1.0 | 0.00 | 0.79 | 0.79 | 99 | 1013.0 |
| 20260508030301 | 53 | 49 | 0.0 | 1.0 | 0.00 | 0.79 | 0.79 | 99 | 1013.1 |
| 20260508025757 | 54 | 52 | 0.0 | 2.0 | 0.00 | 0.79 | 0.79 | 99 | 1012.4 |
| 20260508025254 | 54 | 32 | 3.0 | 3.0 | 0.00 | 0.79 | 0.79 | 99 | 1012.6 |
| 20260508024750 | 54 | 56 | 2.0 | 2.0 | 0.00 | 0.79 | 0.79 | 99 | 1012.6 |
| 20260508024247 | 54 | 34 | 3.0 | 3.0 | 0.00 | 0.79 | 0.79 | 99 | 1012.7 |
| 20260508023744 | 54 | 43 | 2.0 | 3.0 | 0.00 | 0.79 | 0.79 | 99 | 1012.7 |
| 20260508023241 | 54 | 54 | 2.0 | 3.0 | 0.00 | 0.79 | 0.79 | 99 | 1012.6 |
| 20260508022737 | 54 | 60 | 1.0 | 2.0 | 0.00 | 0.79 | 0.79 | 99 | 1012.5 |
| 20260508022234 | 54 | 51 | 2.0 | 2.0 | 0.00 | 0.79 | 0.79 | 99 | 1012.7 |
| 20260508021731 | 54 | 49 | 0.0 | 2.0 | 0.00 | 0.79 | 0.79 | 99 | 1012.5 |
| 20260508021226 | 54 | 78 | 1.0 | 2.0 | 0.00 | 0.79 | 0.79 | 99 | 1012.4 |
| 20260508020723 | 54 | 37 | 1.0 | 2.0 | 0.00 | 0.79 | 0.79 | 99 | 1012.5 |
| 20260508020221 | 54 | 52 | 2.0 | 2.0 | 0.00 | 0.79 | 0.79 | 99 | 1012.2 |
| 20260508015718 | 54 | 63 | 1.0 | 2.0 | 0.00 | 0.79 | 0.79 | 99 | 1012.2 |
| 20260508015215 | 54 | 48 | 3.0 | 3.0 | 0.00 | 0.79 | 0.79 | 99 | 1012.1 |
| 20260508014712 | 54 | 75 | 1.0 | 2.0 | 0.00 | 0.79 | 0.79 | 99 | 1012.2 |
| 20260508014208 | 54 | 69 | 2.0 | 2.0 | 0.00 | 0.79 | 0.79 | 99 | 1012.3 |
| 20260508013704 | 54 | 80 | 2.0 | 2.0 | 0.00 | 0.79 | 0.79 | 99 | 1011.9 |
| 20260508013201 | 54 | 62 | 2.0 | 2.0 | 0.00 | 0.79 | 0.79 | 99 | 1011.7 |
| 20260508012659 | 54 | 59 | 2.0 | 2.0 | 0.00 | 0.79 | 0.79 | 99 | 1011.8 |
| 20260508012155 | 54 | 70 | 2.0 | 2.0 | 0.00 | 0.79 | 0.79 | 99 | 1011.7 |
| 20260508011653 | 54 | 66 | 2.0 | 2.0 | 0.00 | 0.79 | 0.79 | 99 | 1011.5 |
| 20260508011151 | 54 | 51 | 3.0 | 3.0 | 0.00 | 0.79 | 0.79 | 99 | 1011.5 |
| 20260508010647 | 54 | 43 | 2.0 | 3.0 | 0.00 | 0.79 | 0.79 | 99 | 1011.3 |
| 20260508010145 | 54 | 47 | 3.0 | 3.0 | 0.00 | 0.79 | 0.79 | 99 | 1011.3 |
| 20260508005642 | 54 | 50 | 2.0 | 3.0 | 0.00 | 0.79 | 0.79 | 99 | 1011.1 |
| 20260508005139 | 54 | 75 | 2.0 | 3.0 | 0.00 | 0.79 | 0.79 | 99 | 1010.8 |
| 20260508004634 | 54 | 64 | 2.0 | 5.0 | 0.00 | 0.79 | 0.79 | 99 | 1010.9 |
| 20260508004131 | 54 | 41 | 4.0 | 5.0 | 0.00 | 0.79 | 0.79 | 99 | 1010.9 |
| 20260508003627 | 54 | 63 | 2.0 | 4.0 | 0.00 | 0.79 | 0.79 | 99 | 1010.7 |
| 20260508003125 | 54 | 74 | 3.0 | 5.0 | 0.00 | 0.79 | 0.79 | 99 | 1010.8 |
| 20260508002621 | 54 | 51 | 3.0 | 4.0 | 0.00 | 0.79 | 0.79 | 99 | 1010.6 |
| 20260508002119 | 54 | 66 | 2.0 | 3.0 | 0.00 | 0.79 | 0.79 | 99 | 1010.9 |
| 20260508001614 | 54 | 40 | 3.0 | 3.0 | 0.00 | 0.79 | 0.79 | 99 | 1010.8 |
| 20260508001111 | 54 | 43 | 2.0 | 3.0 | 0.00 | 0.79 | 0.79 | 99 | 1011.2 |
| 20260508000606 | 54 | 86 | 2.0 | 3.0 | 0.00 | 0.79 | 0.79 | 99 | 1010.8 |
| 20260508000104 | 55 | 61 | 2.0 | 2.0 | 0.07 | 0.79 | 0.79 | 99 | 1011.2 |
| 20260507235601 | 55 | 113 | 0.0 | 1.0 | 0.12 | 0.78 | 0.78 | 99 | 1011.0 |
| 20260507235058 | 54 | 45 | 3.0 | 3.0 | 0.14 | 0.77 | 0.77 | 99 | 1010.5 |
| 20260507234554 | 54 | 64 | 2.0 | 4.0 | 0.12 | 0.76 | 0.76 | 99 | 1010.7 |
| 20260507234051 | 55 | 40 | 2.0 | 3.0 | 0.19 | 0.74 | 0.74 | 99 | 1010.5 |
| 20260507233548 | 55 | 73 | 1.0 | 3.0 | 0.42 | 0.74 | 0.74 | 99 | 1010.5 |
| 20260507233047 | 55 | 54 | 2.0 | 5.0 | 0.40 | 0.70 | 0.70 | 99 | 1010.2 |
| 20260507232542 | 55 | 74 | 2.0 | 5.0 | 0.19 | 0.67 | 0.67 | 99 | 1010.3 |
| 20260507232040 | 55 | 21 | 3.0 | 5.0 | 0.00 | 0.63 | 0.63 | 99 | 1010.5 |
| 20260507231536 | 55 | 99 | 3.0 | 4.0 | 0.00 | 0.63 | 0.63 | 98 | 1009.8 |
| 20260507231034 | 55 | 40 | 4.0 | 4.0 | 0.00 | 0.63 | 0.63 | 98 | 1009.8 |
| 20260507230530 | 55 | 83 | 2.0 | 5.0 | 0.00 | 0.63 | 0.63 | 98 | 1009.6 |
| 20260507230027 | 55 | 61 | 3.0 | 5.0 | 0.00 | 0.63 | 0.63 | 98 | 1009.7 |
| 20260507225521 | 55 | 73 | 2.0 | 7.0 | 0.00 | 0.63 | 0.63 | 97 | 1009.5 |
| 20260507225018 | 56 | 49 | 1.0 | 5.0 | 0.00 | 0.63 | 0.63 | 98 | 1009.8 |
| 20260507224514 | 56 | 57 | 3.0 | 5.0 | 0.00 | 0.63 | 0.63 | 97 | 1009.5 |
| 20260507224011 | 56 | 33 | 5.0 | 7.0 | 0.00 | 0.63 | 0.63 | 97 | 1009.5 |
| 20260507223507 | 56 | 79 | 3.0 | 5.0 | 0.00 | 0.63 | 0.63 | 98 | 1009.8 |
| 20260507223004 | 56 | 87 | 2.0 | 4.0 | 0.00 | 0.63 | 0.63 | 98 | 1009.6 |
| 20260507222501 | 56 | 44 | 4.0 | 5.0 | 0.00 | 0.63 | 0.63 | 98 | 1009.6 |
| 20260507221957 | 56 | 50 | 3.0 | 5.0 | 0.00 | 0.63 | 0.63 | 98 | 1009.5 |
| 20260507221454 | 56 | 44 | 5.0 | 8.0 | 0.00 | 0.63 | 0.63 | 96 | 1009.6 |
| 20260507220951 | 56 | 56 | 3.0 | 7.0 | 0.00 | 0.63 | 0.63 | 96 | 1009.5 |
| 20260507220448 | 56 | 55 | 3.0 | 6.0 | 0.00 | 0.63 | 0.63 | 96 | 1009.5 |
| 20260507215945 | 57 | 41 | 4.0 | 6.0 | 0.00 | 0.63 | 0.63 | 97 | 1009.1 |
| 20260507215441 | 57 | 50 | 2.0 | 5.0 | 0.00 | 0.63 | 0.63 | 98 | 1009.4 |
| 20260507214939 | 57 | 89 | 3.0 | 4.0 | 0.00 | 0.63 | 0.63 | 97 | 1009.2 |
| 20260507214436 | 56 | 69 | 3.0 | 9.0 | 0.00 | 0.63 | 0.63 | 97 | 1009.4 |
| 20260507213932 | 56 | 102 | 3.0 | 11.0 | 0.00 | 0.63 | 0.63 | 98 | 1009.2 |
| 20260507213428 | 56 | 50 | 3.0 | 7.0 | 0.00 | 0.63 | 0.63 | 99 | 1009.1 |
| 20260507212925 | 57 | 54 | 2.0 | 4.0 | 0.00 | 0.63 | 0.63 | 99 | 1009.5 |
| 20260507212421 | 57 | 91 | 3.0 | 4.0 | 0.00 | 0.63 | 0.63 | 99 | 1009.1 |
| 20260507211918 | 57 | 65 | 5.0 | 5.0 | 0.00 | 0.63 | 0.63 | 98 | 1009.2 |
| 20260507211415 | 57 | 73 | 2.0 | 6.0 | 0.00 | 0.63 | 0.63 | 99 | 1009.1 |
| 20260507210911 | 57 | 51 | 5.0 | 7.0 | 0.00 | 0.63 | 0.63 | 98 | 1009.2 |
| 20260507210409 | 57 | 84 | 3.0 | 3.0 | 0.00 | 0.63 | 0.63 | 99 | 1009.0 |
| 20260507205905 | 57 | 20 | 3.0 | 10.0 | 0.00 | 0.63 | 0.63 | 98 | 1009.0 |
| 20260507205403 | 57 | 12 | 6.0 | 6.0 | 0.00 | 0.63 | 0.63 | 98 | 1008.7 |
| 20260507204859 | 57 | 34 | 5.0 | 8.0 | 0.00 | 0.63 | 0.63 | 98 | 1008.9 |
| 20260507204355 | 57 | 39 | 5.0 | 6.0 | 0.00 | 0.63 | 0.63 | 98 | 1008.7 |
| 20260507203853 | 57 | 13 | 5.0 | 7.0 | 0.00 | 0.63 | 0.63 | 98 | 1008.7 |
| 20260507203351 | 57 | 63 | 4.0 | 6.0 | 0.00 | 0.63 | 0.63 | 98 | 1008.6 |
| 20260507202846 | 57 | 83 | 3.0 | 5.0 | 0.00 | 0.63 | 0.63 | 99 | 1008.4 |
| 20260507202343 | 57 | 26 | 6.0 | 10.0 | 0.00 | 0.63 | 0.63 | 99 | 1008.9 |
| 20260507201839 | 58 | 69 | 3.0 | 10.0 | 0.00 | 0.63 | 0.63 | 99 | 1009.0 |
| 20260507201334 | 58 | 30 | 3.0 | 6.0 | 0.00 | 0.63 | 0.63 | 99 | 1008.9 |
| 20260507200831 | 58 | 85 | 2.0 | 5.0 | 0.00 | 0.63 | 0.63 | 99 | 1008.3 |
| 20260507200327 | 58 | 62 | 3.0 | 6.0 | 0.00 | 0.63 | 0.63 | 98 | 1008.6 |
| 20260507195823 | 58 | 126 | 3.0 | 5.0 | 0.00 | 0.63 | 0.63 | 99 | 1008.3 |
| 20260507195321 | 59 | 30 | 3.0 | 5.0 | 0.00 | 0.63 | 0.63 | 99 | 1008.4 |
| 20260507194818 | 58 | 22 | 5.0 | 6.0 | 0.00 | 0.63 | 0.63 | 99 | 1008.7 |
| 20260507194314 | 58 | 75 | 3.0 | 8.0 | 0.00 | 0.63 | 0.63 | 99 | 1008.3 |
| 20260507193810 | 58 | 48 | 4.0 | 10.0 | 0.00 | 0.63 | 0.63 | 99 | 1008.9 |
| 20260507193308 | 58 | 85 | 3.0 | 5.0 | 0.00 | 0.63 | 0.63 | 99 | 1008.8 |
| 20260507192803 | 58 | 76 | 3.0 | 10.0 | 0.00 | 0.63 | 0.63 | 99 | 1008.6 |
| 20260507192300 | 58 | 76 | 2.0 | 8.0 | 0.00 | 0.63 | 0.63 | 99 | 1008.8 |
| 20260507191756 | 58 | 41 | 4.0 | 7.0 | 0.00 | 0.63 | 0.63 | 99 | 1008.8 |
| 20260507191253 | 58 | 28 | 6.0 | 13.0 | 0.00 | 0.63 | 0.63 | 99 | 1008.6 |
| 20260507190750 | 58 | 43 | 3.0 | 10.0 | 0.00 | 0.63 | 0.63 | 99 | 1008.8 |
| 20260507190249 | 58 | 46 | 3.0 | 6.0 | 0.00 | 0.63 | 0.63 | 99 | 1008.7 |
| 20260507185747 | 59 | 8 | 7.0 | 10.0 | 0.00 | 0.63 | 0.63 | 99 | 1008.7 |
| 20260507185243 | 59 | 27 | 4.0 | 5.0 | 0.00 | 0.63 | 0.63 | 99 | 1009.1 |
| 20260507184741 | 59 | 41 | 3.0 | 7.0 | 0.00 | 0.63 | 0.63 | 99 | 1008.9 |
| 20260507184239 | 60 | 13 | 5.0 | 11.0 | 0.02 | 0.63 | 0.63 | 98 | 1008.4 |
| 20260507183735 | 61 | 18 | 11.0 | 11.0 | 0.02 | 0.63 | 0.63 | 98 | 1008.3 |
| 20260507183232 | 63 | 43 | 3.0 | 11.0 | 0.05 | 0.63 | 0.63 | 97 | 1008.0 |
| 20260507182730 | 66 | 353 | 7.0 | 9.0 | 0.05 | 0.63 | 0.63 | 96 | 1007.9 |
| 20260507182224 | 68 | 25 | 5.0 | 5.0 | 0.02 | 0.63 | 0.63 | 99 | 1007.3 |
| 20260507181722 | 67 | 55 | 2.0 | 5.0 | 0.02 | 0.62 | 0.62 | 99 | 1007.9 |
| 20260507181218 | 67 | 49 | 3.0 | 3.0 | 0.02 | 0.62 | 0.62 | 99 | 1007.9 |
| 20260507180715 | 67 | 15 | 3.0 | 8.0 | 0.00 | 0.62 | 0.62 | 98 | 1008.0 |
| 20260507180212 | 68 | 14 | 5.0 | 6.0 | 0.02 | 0.62 | 0.62 | 98 | 1008.4 |
| 20260507175707 | 68 | 47 | 0.0 | 4.0 | 0.05 | 0.62 | 0.62 | 97 | 1008.1 |
| 20260507175204 | 68 | 34 | 2.0 | 4.0 | 0.02 | 0.61 | 0.61 | 97 | 1008.2 |
| 20260507174702 | 68 | 8 | 4.0 | 5.0 | 0.00 | 0.61 | 0.61 | 96 | 1007.3 |
| 20260507174200 | 68 | 3 | 4.0 | 4.0 | 0.00 | 0.61 | 0.61 | 97 | 1008.1 |
| 20260507173657 | 68 | 38 | 1.0 | 2.0 | 0.00 | 0.61 | 0.61 | 97 | 1008.2 |
| 20260507173153 | 68 | 38 | 2.0 | 4.0 | 0.00 | 0.61 | 0.61 | 98 | 1008.0 |
| 20260507172650 | 68 | 14 | 4.0 | 4.0 | 0.00 | 0.61 | 0.61 | 99 | 1008.2 |
| 20260507172147 | 67 | 34 | 2.0 | 5.0 | 0.00 | 0.61 | 0.61 | 99 | 1008.7 |
| 20260507171647 | 67 | 26 | 3.0 | 9.0 | 0.00 | 0.61 | 0.61 | 98 | 1008.9 |
| 20260507171144 | 68 | 3 | 7.0 | 9.0 | 0.00 | 0.61 | 0.61 | 96 | 1009.2 |
| 20260507170641 | 69 | 345 | 2.0 | 3.0 | 0.00 | 0.61 | 0.61 | 97 | 1008.7 |
| 20260507170139 | 69 | 22 | 0.0 | 2.0 | 0.00 | 0.61 | 0.61 | 98 | 1008.3 |
| 20260507165634 | 69 | 44 | 0.0 | 2.0 | 0.00 | 0.61 | 0.61 | 97 | 1008.0 |
| 20260507165131 | 69 | 28 | 0.0 | 3.0 | 0.00 | 0.61 | 0.61 | 97 | 1007.9 |
| 20260507164626 | 70 | 60 | 1.0 | 5.0 | 0.00 | 0.61 | 0.61 | 95 | 1007.7 |
| 20260507164124 | 70 | 46 | 1.0 | 2.0 | 0.00 | 0.61 | 0.61 | 96 | 1007.6 |
| 20260507163621 | 71 | 14 | 2.0 | 3.0 | 0.00 | 0.61 | 0.61 | 96 | 1007.6 |
| 20260507163119 | 71 | 322 | 0.0 | 1.0 | 0.00 | 0.61 | 0.61 | 95 | 1007.6 |
| 20260507162614 | 70 | 48 | 2.0 | 2.0 | 0.00 | 0.61 | 0.61 | 99 | 1007.8 |
| 20260507162111 | 69 | 44 | 0.0 | 1.0 | 0.02 | 0.61 | 0.61 | 99 | 1007.9 |
| 20260507161607 | 69 | 71 | 0.0 | 2.0 | 0.02 | 0.61 | 0.61 | 99 | 1008.0 |
| 20260507161104 | 69 | 329 | 0.0 | 2.0 | 0.00 | 0.61 | 0.61 | 99 | 1008.2 |
| 20260507160600 | 68 | 37 | 0.0 | 2.0 | 0.02 | 0.61 | 0.61 | 99 | 1008.8 |
| 20260507160057 | 68 | 39 | 0.0 | 2.0 | 0.02 | 0.61 | 0.61 | 99 | 1008.7 |
| 20260507155552 | 68 | 315 | 0.0 | 2.0 | 0.05 | 0.60 | 0.60 | 99 | 1009.4 |
| 20260507155049 | 67 | 35 | 0.0 | 1.0 | 0.05 | 0.60 | 0.60 | 99 | 1009.4 |
| 20260507154546 | 67 | 66 | 0.0 | 2.0 | 0.05 | 0.59 | 0.59 | 99 | 1009.5 |
| 20260507154043 | 67 | 274 | 0.0 | 1.0 | 0.02 | 0.59 | 0.59 | 99 | 1009.8 |
| 20260507153540 | 67 | 310 | 2.0 | 3.0 | 0.00 | 0.59 | 0.59 | 99 | 1009.9 |
| 20260507153036 | 67 | 33 | 1.0 | 3.0 | 0.00 | 0.59 | 0.59 | 99 | 1009.8 |
| 20260507152532 | 67 | 305 | 3.0 | 3.0 | 0.00 | 0.59 | 0.59 | 99 | 1009.4 |
| 20260507152029 | 67 | 321 | 0.0 | 0.0 | 0.00 | 0.59 | 0.59 | 99 | 1009.0 |
| 20260507151525 | 67 | 358 | 0.0 | 3.0 | 0.00 | 0.59 | 0.59 | 99 | 1009.1 |
| 20260507151022 | 67 | 298 | 2.0 | 2.0 | 0.00 | 0.59 | 0.59 | 99 | 1009.3 |
| 20260507150519 | 67 | 332 | 2.0 | 2.0 | 0.00 | 0.59 | 0.59 | 99 | 1008.7 |
| 20260507150015 | 67 | 39 | 0.0 | 1.0 | 0.00 | 0.59 | 0.59 | 99 | 1008.6 |
| 20260507145510 | 67 | 44 | 0.0 | 1.0 | 0.02 | 0.59 | 0.59 | 99 | 1008.7 |
| 20260507145009 | 67 | 32 | 2.0 | 2.0 | 0.02 | 0.59 | 0.59 | 99 | 1009.2 |
| 20260507144505 | 66 | 80 | 0.0 | 1.0 | 0.02 | 0.58 | 0.58 | 99 | 1009.0 |
| 20260507144002 | 66 | 48 | 0.0 | 1.0 | 0.02 | 0.58 | 0.58 | 99 | 1009.0 |
| 20260507143459 | 66 | 299 | 0.0 | 1.0 | 0.02 | 0.58 | 0.58 | 99 | 1009.4 |
| 20260507142956 | 66 | 89 | 0.0 | 0.0 | 0.05 | 0.58 | 0.58 | 99 | 1009.1 |
| 20260507142452 | 66 | 66 | 0.0 | 0.0 | 0.05 | 0.57 | 0.57 | 99 | 1009.1 |
| 20260507141949 | 66 | 58 | 0.0 | 1.0 | 0.02 | 0.57 | 0.57 | 99 | 1008.8 |
| 20260507141445 | 66 | 83 | 1.0 | 1.0 | 0.05 | 0.57 | 0.57 | 99 | 1009.2 |
| 20260507140942 | 66 | 38 | 0.0 | 1.0 | 0.05 | 0.56 | 0.56 | 99 | 1009.4 |
| 20260507140438 | 66 | 50 | 0.0 | 1.0 | 0.05 | 0.56 | 0.56 | 99 | 1009.5 |
| 20260507135936 | 66 | 50 | 0.0 | 1.0 | 0.09 | 0.56 | 0.56 | 99 | 1009.6 |
| 20260507135433 | 66 | 142 | 0.0 | 0.0 | 0.09 | 0.55 | 0.55 | 99 | 1009.3 |
| 20260507134930 | 66 | 57 | 0.0 | 1.0 | 0.05 | 0.54 | 0.54 | 99 | 1009.3 |
| 20260507134426 | 66 | 77 | 1.0 | 1.0 | 0.05 | 0.54 | 0.54 | 99 | 1009.3 |
| 20260507133922 | 66 | 55 | 0.0 | 2.0 | 0.12 | 0.53 | 0.53 | 99 | 1009.4 |
| 20260507133419 | 66 | 19 | 0.0 | 1.0 | 0.17 | 0.52 | 0.52 | 99 | 1009.2 |
| 20260507132917 | 66 | 38 | 0.0 | 2.0 | 0.19 | 0.51 | 0.51 | 99 | 1009.6 |
| 20260507132413 | 65 | 334 | 0.0 | 1.0 | 0.09 | 0.49 | 0.49 | 99 | 1009.8 |
| 20260507131910 | 65 | 315 | 0.0 | 2.0 | 0.02 | 0.48 | 0.48 | 99 | 1009.9 |
| 20260507131407 | 65 | 322 | 1.0 | 2.0 | 0.02 | 0.48 | 0.48 | 99 | 1010.0 |
| 20260507130904 | 65 | 317 | 2.0 | 2.0 | 0.02 | 0.47 | 0.47 | 99 | 1009.8 |
| 20260507130401 | 65 | 327 | 0.0 | 0.0 | 0.02 | 0.47 | 0.47 | 99 | 1009.7 |
| 20260507125859 | 65 | 336 | 1.0 | 2.0 | 0.00 | 0.47 | 0.47 | 99 | 1009.8 |
| 20260507125356 | 65 | 332 | 0.0 | 1.0 | 0.02 | 0.47 | 0.47 | 99 | 1009.8 |
| 20260507124854 | 65 | 37 | 0.0 | 1.0 | 0.02 | 0.47 | 0.47 | 99 | 1009.5 |
| 20260507124350 | 65 | 29 | 0.0 | 1.0 | 0.00 | 0.47 | 0.47 | 99 | 1009.7 |
| 20260507123849 | 65 | 51 | 0.0 | 1.0 | 0.00 | 0.47 | 0.47 | 99 | 1009.8 |
| 20260507123345 | 65 | 48 | 0.0 | 2.0 | 0.00 | 0.47 | 0.47 | 99 | 1009.7 |
| 20260507122842 | 65 | 8 | 0.0 | 1.0 | 0.00 | 0.47 | 0.47 | 99 | 1009.7 |
| 20260507122337 | 64 | 89 | 0.0 | 1.0 | 0.00 | 0.47 | 0.47 | 99 | 1009.7 |
| 20260507121834 | 64 | 50 | 0.0 | 1.0 | 0.00 | 0.47 | 0.47 | 99 | 1009.6 |
| 20260507121329 | 64 | 50 | 0.0 | 0.0 | 0.02 | 0.47 | 0.47 | 99 | 1009.5 |
| 20260507120826 | 64 | 42 | 0.0 | 1.0 | 0.02 | 0.47 | 0.47 | 99 | 1009.5 |
| 20260507120322 | 64 | 129 | 0.0 | 3.0 | 0.02 | 0.46 | 0.46 | 99 | 1009.7 |
| 20260507115819 | 64 | 157 | 0.0 | 2.0 | 0.05 | 0.46 | 0.46 | 99 | 1009.5 |
| 20260507115315 | 64 | 345 | 0.0 | 2.0 | 0.02 | 0.46 | 0.46 | 99 | 1009.7 |
| 20260507114810 | 64 | 62 | 0.0 | 2.0 | 0.00 | 0.45 | 0.45 | 99 | 1009.7 |
| 20260507114308 | 64 | 38 | 0.0 | 1.0 | 0.00 | 0.45 | 0.45 | 99 | 1009.9 |
| 20260507113805 | 64 | 27 | 0.0 | 2.0 | 0.00 | 0.45 | 0.45 | 99 | 1009.9 |
| 20260507113302 | 64 | 315 | 3.0 | 3.0 | 0.00 | 0.45 | 0.45 | 99 | 1010.0 |
| 20260507112800 | 64 | 44 | 0.0 | 2.0 | 0.00 | 0.45 | 0.45 | 99 | 1009.6 |
| 20260507112256 | 64 | 45 | 1.0 | 2.0 | 0.00 | 0.45 | 0.45 | 99 | 1009.5 |
| 20260507111755 | 64 | 69 | 0.0 | 1.0 | 0.00 | 0.45 | 0.45 | 99 | 1009.7 |
| 20260507111250 | 64 | 129 | 0.0 | 1.0 | 0.00 | 0.45 | 0.45 | 99 | 1009.8 |
| 20260507110746 | 64 | 129 | 0.0 | 0.0 | 0.00 | 0.45 | 0.45 | 99 | 1009.8 |
| 20260507110243 | 64 | 113 | 0.0 | 1.0 | 0.00 | 0.45 | 0.45 | 99 | 1009.7 |
| 20260507105740 | 64 | 83 | 1.0 | 2.0 | 0.00 | 0.45 | 0.45 | 99 | 1009.9 |
| 20260507105236 | 64 | 69 | 0.0 | 1.0 | 0.00 | 0.45 | 0.45 | 99 | 1010.0 |
| 20260507104734 | 64 | 80 | 1.0 | 2.0 | 0.00 | 0.45 | 0.45 | 99 | 1010.2 |
| 20260507104230 | 64 | 55 | 0.0 | 1.0 | 0.00 | 0.45 | 0.45 | 99 | 1009.9 |
| 20260507103726 | 64 | 22 | 0.0 | 0.0 | 0.00 | 0.45 | 0.45 | 99 | 1009.9 |
| 20260507103223 | 63 | 69 | 0.0 | 0.0 | 0.00 | 0.45 | 0.45 | 99 | 1009.8 |
| 20260507102719 | 63 | 44 | 0.0 | 1.0 | 0.00 | 0.45 | 0.45 | 99 | 1009.6 |
| 20260507102215 | 63 | 48 | 0.0 | 2.0 | 0.00 | 0.45 | 0.45 | 99 | 1009.7 |
| 20260507101712 | 63 | 50 | 0.0 | 2.0 | 0.02 | 0.45 | 0.45 | 99 | 1009.7 |
| 20260507101207 | 63 | 55 | 1.0 | 1.0 | 0.05 | 0.45 | 0.45 | 99 | 1009.7 |
| 20260507100705 | 63 | 50 | 0.0 | 0.0 | 0.05 | 0.45 | 0.45 | 99 | 1009.7 |
| 20260507100203 | 63 | 60 | 0.0 | 1.0 | 0.02 | 0.45 | 0.45 | 99 | 1009.5 |
| 20260507095701 | 63 | 45 | 0.0 | 2.0 | 0.02 | 0.44 | 0.44 | 99 | 1009.7 |
| 20260507095157 | 63 | 44 | 0.0 | 2.0 | 0.02 | 0.44 | 0.44 | 99 | 1009.8 |
| 20260507094654 | 63 | 129 | 0.0 | 0.0 | 0.00 | 0.44 | 0.44 | 99 | 1009.7 |
| 20260507094150 | 63 | 89 | 0.0 | 1.0 | 0.00 | 0.44 | 0.44 | 99 | 1009.8 |
| 20260507093648 | 63 | 83 | 0.0 | 1.0 | 0.00 | 0.44 | 0.44 | 99 | 1009.7 |
| 20260507093146 | 63 | 135 | 0.0 | 1.0 | 0.02 | 0.44 | 0.44 | 99 | 1009.8 |
| 20260507092643 | 63 | 47 | 1.0 | 2.0 | 0.02 | 0.43 | 0.43 | 99 | 1009.8 |
| 20260507092139 | 63 | 65 | 1.0 | 2.0 | 0.02 | 0.43 | 0.43 | 99 | 1009.8 |
| 20260507091636 | 63 | 338 | 2.0 | 2.0 | 0.02 | 0.43 | 0.43 | 99 | 1009.9 |
| 20260507091132 | 63 | 63 | 1.0 | 2.0 | 0.00 | 0.43 | 0.43 | 99 | 1009.9 |
| 20260507090628 | 63 | 48 | 1.0 | 2.0 | 0.00 | 0.43 | 0.43 | 99 | 1009.8 |
| 20260507090125 | 63 | 38 | 1.0 | 1.0 | 0.00 | 0.43 | 0.43 | 99 | 1009.9 |
| 20260507085622 | 63 | 54 | 1.0 | 2.0 | 0.00 | 0.43 | 0.43 | 99 | 1009.8 |
| 20260507085119 | 63 | 44 | 0.0 | 1.0 | 0.00 | 0.43 | 0.43 | 99 | 1009.8 |
| 20260507084615 | 63 | 40 | 1.0 | 1.0 | 0.00 | 0.43 | 0.43 | 99 | 1009.9 |
| 20260507084112 | 63 | 38 | 0.0 | 2.0 | 0.00 | 0.43 | 0.43 | 99 | 1009.8 |
| 20260507083609 | 63 | 36 | 0.0 | 1.0 | 0.00 | 0.43 | 0.43 | 99 | 1009.9 |
| 20260507083106 | 63 | 50 | 0.0 | 2.0 | 0.00 | 0.43 | 0.43 | 99 | 1009.7 |
| 20260507082602 | 63 | 60 | 1.0 | 2.0 | 0.02 | 0.43 | 0.43 | 99 | 1010.0 |
| 20260507082058 | 63 | 42 | 1.0 | 2.0 | 0.02 | 0.43 | 0.43 | 99 | 1010.3 |
| 20260507081555 | 63 | 50 | 0.0 | 2.0 | 0.02 | 0.42 | 0.42 | 99 | 1010.1 |
| 20260507081052 | 63 | 341 | 1.0 | 2.0 | 0.05 | 0.42 | 0.42 | 99 | 1010.2 |
| 20260507080547 | 63 | 74 | 0.0 | 1.0 | 0.07 | 0.42 | 0.42 | 99 | 1010.4 |
| 20260507080044 | 63 | 89 | 0.0 | 2.0 | 0.07 | 0.42 | 0.42 | 99 | 1010.6 |
| 20260507075539 | 63 | 40 | 1.0 | 2.0 | 0.02 | 0.41 | 0.41 | 99 | 1010.8 |
| 20260507075036 | 63 | 14 | 2.0 | 2.0 | 0.00 | 0.41 | 0.41 | 99 | 1011.0 |
| 20260507074533 | 63 | 0 | 0.0 | 2.0 | 0.07 | 0.41 | 0.41 | 99 | 1010.4 |
| 20260507074031 | 63 | 329 | 1.0 | 2.0 | 0.17 | 0.41 | 0.41 | 99 | 1010.4 |
| 20260507073527 | 63 | 113 | 0.0 | 2.0 | 0.14 | 0.39 | 0.39 | 99 | 1010.0 |
| 20260507073024 | 63 | 60 | 0.0 | 0.0 | 0.12 | 0.38 | 0.38 | 99 | 1010.3 |
| 20260507072521 | 63 | 77 | 1.0 | 2.0 | 0.07 | 0.37 | 0.37 | 99 | 1010.2 |
| 20260507072018 | 63 | 89 | 0.0 | 1.0 | 0.02 | 0.36 | 0.36 | 99 | 1010.5 |
| 20260507071516 | 63 | 21 | 2.0 | 3.0 | 0.07 | 0.35 | 0.35 | 99 | 1010.9 |
| 20260507071012 | 63 | 30 | 2.0 | 2.0 | 0.14 | 0.35 | 0.35 | 99 | 1010.9 |
| 20260507070509 | 63 | 89 | 0.0 | 1.0 | 0.14 | 0.35 | 0.35 | 99 | 1011.0 |
| 20260507070010 | 63 | 331 | 2.0 | 3.0 | 0.02 | 0.32 | 0.32 | 99 | 1010.8 |
| 20260507065503 | 63 | 135 | 0.0 | 0.0 | 0.07 | 0.32 | 0.32 | 99 | 1010.7 |
| 20260507065000 | 62 | 44 | 0.0 | 0.0 | 0.09 | 0.32 | 0.32 | 99 | 1011.0 |
| 20260507064458 | 62 | 92 | 1.0 | 2.0 | 0.35 | 0.31 | 0.31 | 99 | 1011.2 |
| 20260507063956 | 62 | 87 | 1.0 | 2.0 | 0.35 | 0.31 | 0.31 | 99 | 1011.2 |
| 20260507063453 | 63 | 72 | 1.0 | 2.0 | 0.02 | 0.25 | 0.25 | 99 | 1011.3 |
| 20260507062950 | 62 | 41 | 0.0 | 2.0 | 0.00 | 0.24 | 0.24 | 99 | 1011.5 |
| 20260507062447 | 62 | 336 | 0.0 | 1.0 | 0.00 | 0.24 | 0.24 | 99 | 1011.7 |
| 20260507061944 | 62 | 322 | 0.0 | 0.0 | 0.00 | 0.24 | 0.24 | 99 | 1011.5 |
| 20260507061442 | 62 | 79 | 2.0 | 2.0 | 0.00 | 0.24 | 0.24 | 99 | 1011.4 |
| 20260507060940 | 62 | 35 | 1.0 | 2.0 | 0.00 | 0.24 | 0.24 | 99 | 1011.6 |
| 20260507060436 | 62 | 66 | 0.0 | 2.0 | 0.00 | 0.24 | 0.24 | 99 | 1011.6 |
| 20260507055933 | 62 | 57 | 1.0 | 2.0 | 0.00 | 0.24 | 0.24 | 99 | 1011.9 |
| 20260507055428 | 62 | 38 | 1.0 | 2.0 | 0.00 | 0.24 | 0.24 | 99 | 1011.7 |
| 20260507054925 | 62 | 57 | 1.0 | 2.0 | 0.00 | 0.24 | 0.24 | 99 | 1011.6 |